Wrangell, AK

11:20 PM AKST on February 24, 2017 (GMT -0900)
Wrangell

Weather History for PAWG - January, 2013

Change the Weather History Date:

Wednesday, January 16, 2013

  Actual Average Record
Temperature  
Mean Temperature 40 °F -  
Max Temperature 42 °F 34 °F 58 °F (1981)
Min Temperature 39 °F 23 °F 0 °F (1971)
Degree Days  
Heating Degree Days 24    
Moisture  
Dew Point 35 °F    
Average Humidity 85    
Maximum Humidity 93    
Minimum Humidity 76    
Precipitation  
Precipitation 0.69 in - - ()
Sea Level Pressure  
Sea Level Pressure 30.24 in    
Wind  
Wind Speed 9 mph (ESE)    
Max Wind Speed 21 mph    
Max Gust Speed 28 mph    
Visibility 8 miles    
Events      
Averages and records for this station are not official NWS values.
T = Trace of Precipitation, MM = Missing Value Source: NWS Daily Summary

Daily Weather History Graph

Daily Weather History Graph

Search for Another Location

Airport or City:

Trip Planner

Search our weather history database for the weather conditions in past years. The results will help you decide how hot, cold, wet, or windy it might be!

Date:

Astronomy

Jan. 16, 2013 Rise Set
Actual Time 8:11 AM AKST 3:47 PM AKST
Civil Twilight 7:26 AM AKST 4:32 PM AKST
Nautical Twilight 6:38 AM AKST 5:20 PM AKST
Astronomical Twilight 5:53 AM AKST 6:05 PM AKST
Moon 9:37 AM AKST (1/16) 11:07 PM AKST (1/16)
Length of Visible Light 9h 06m
Length of Day
7h 36m
Waxing Crescent, 29% of the Moon is Illuminated
Jan 16
Waxing Crescent
Jan 18
First Quarter
Jan 26
Full
Feb 3
Last Quarter
Feb 9
New

Hourly Weather History & Observations

Time (AKST) Temp. Windchill Dew Point Humidity Pressure Visibility Wind Dir Wind Speed Gust Speed Precip Events Conditions
12:16 AM 39.2 °F 33.0 °F 35.6 °F 87% 30.39 in 3.0 mi ESE 9.2 mph - 0.01 in   Overcast
12:36 AM 39.2 °F 33.0 °F 35.6 °F 87% 30.40 in 5.0 mi ESE 9.2 mph - 0.01 in   Overcast
12:56 AM 39.2 °F 33.0 °F 37.4 °F 93% 30.40 in 4.0 mi East 9.2 mph - 0.02 in   Overcast
1:16 AM 39.2 °F 33.6 °F 35.6 °F 87% 30.41 in 2.5 mi ESE 8.1 mph - N/A   Overcast
1:36 AM 39.2 °F 33.6 °F 35.6 °F 87% 30.41 in 5.0 mi ESE 8.1 mph - 0.01 in   Overcast
1:56 AM 39.2 °F 33.0 °F 35.6 °F 87% 30.41 in 7.0 mi ESE 9.2 mph - 0.01 in   Overcast
2:16 AM 39.2 °F 34.2 °F 35.6 °F 87% 30.41 in 5.0 mi ESE 6.9 mph - N/A   Overcast
2:36 AM 39.2 °F 33.6 °F 35.6 °F 87% 30.41 in 9.0 mi ESE 8.1 mph - N/A   Overcast
3:16 AM 39.2 °F 32.5 °F 35.6 °F 87% 30.41 in 10.0 mi ESE 10.4 mph - N/A   Overcast
3:36 AM 39.2 °F 33.6 °F 37.4 °F 93% 30.40 in 10.0 mi ESE 8.1 mph - N/A   Overcast
3:56 AM 39.2 °F 33.6 °F 35.6 °F 87% 30.40 in 10.0 mi ESE 8.1 mph - N/A   Overcast
4:16 AM 39.2 °F 34.2 °F 35.6 °F 87% 30.40 in 10.0 mi SE 6.9 mph - N/A   Overcast
4:36 AM 39.2 °F 33.0 °F 35.6 °F 87% 30.39 in 10.0 mi ESE 9.2 mph - N/A   Overcast
4:56 AM 39.2 °F 33.6 °F 35.6 °F 87% 30.39 in 10.0 mi ESE 8.1 mph - N/A   Overcast
5:16 AM 39.2 °F 33.6 °F 35.6 °F 87% 30.40 in 10.0 mi SE 8.1 mph - N/A   Overcast
5:36 AM 39.2 °F 34.2 °F 37.4 °F 93% 30.40 in 10.0 mi East 6.9 mph - N/A   Overcast
5:56 AM 39.2 °F 33.6 °F 35.6 °F 87% 30.40 in 10.0 mi ESE 8.1 mph - N/A   Overcast
6:16 AM 39.2 °F 34.2 °F 35.6 °F 87% 30.40 in 10.0 mi East 6.9 mph - N/A   Overcast
6:36 AM 39.2 °F 33.6 °F 35.6 °F 87% 30.40 in 10.0 mi ESE 8.1 mph - N/A   Overcast
6:56 AM 39.2 °F 33.0 °F 35.6 °F 87% 30.40 in 10.0 mi ESE 9.2 mph - N/A   Overcast
7:16 AM 39.2 °F 34.2 °F 35.6 °F 87% 30.40 in 10.0 mi SSE 6.9 mph - N/A   Overcast
7:36 AM 39.2 °F 33.0 °F 35.6 °F 87% 30.40 in 10.0 mi East 9.2 mph - N/A   Overcast
7:56 AM 39.2 °F - 35.6 °F 87% 30.39 in 10.0 mi Calm Calm - N/A   Overcast
8:16 AM 39.2 °F 33.6 °F 35.6 °F 87% 30.38 in 10.0 mi ESE 8.1 mph - N/A   Overcast
8:36 AM 39.2 °F 32.5 °F 35.6 °F 87% 30.37 in 10.0 mi SE 10.4 mph - N/A   Overcast
8:56 AM 39.2 °F 33.6 °F 35.6 °F 87% 30.37 in 10.0 mi SE 8.1 mph - N/A   Overcast
9:16 AM 39.2 °F 34.2 °F 35.6 °F 87% 30.37 in 10.0 mi ESE 6.9 mph - N/A   Overcast
9:36 AM 39.2 °F - 35.6 °F 87% 30.36 in 10.0 mi Calm Calm - N/A   Overcast
9:56 AM 39.2 °F 35.0 °F 35.6 °F 87% 30.35 in 10.0 mi SE 5.8 mph - N/A   Overcast
10:16 AM 39.2 °F 32.5 °F 37.4 °F 93% 30.34 in 10.0 mi East 10.4 mph 17.3 mph N/A   Overcast
10:36 AM 39.2 °F 33.6 °F 35.6 °F 87% 30.34 in 10.0 mi East 8.1 mph - N/A   Overcast
10:56 AM 39.2 °F 33.0 °F 35.6 °F 87% 30.32 in 10.0 mi East 9.2 mph - N/A   Overcast
11:16 AM 39.2 °F 33.0 °F 35.6 °F 87% 30.31 in 10.0 mi ESE 9.2 mph - 0.01 in   Overcast
11:36 AM 39.2 °F 33.0 °F 35.6 °F 87% 30.29 in 10.0 mi East 9.2 mph - 0.02 in   Overcast
11:56 AM 39.2 °F 33.0 °F 35.6 °F 87% 30.27 in 7.0 mi SE 9.2 mph - 0.03 in   Overcast
12:16 PM 39.2 °F 34.2 °F 33.8 °F 81% 30.26 in 7.0 mi South 6.9 mph - 0.02 in   Overcast
12:36 PM 39.2 °F 35.0 °F 35.6 °F 87% 30.26 in 7.0 mi SSW 5.8 mph - 0.05 in   Overcast
12:56 PM 39.2 °F 37.0 °F 35.6 °F 87% 30.24 in 7.0 mi SE 3.5 mph - 0.08 in   Overcast
1:16 PM 39.2 °F - 35.6 °F 87% 30.23 in 7.0 mi Calm Calm - 0.02 in   Overcast
1:36 PM 39.2 °F 33.0 °F 33.8 °F 81% 30.22 in 7.0 mi SE 9.2 mph - 0.03 in   Overcast
1:56 PM 39.2 °F 30.8 °F 33.8 °F 81% 30.20 in 7.0 mi ESE 15.0 mph 20.7 mph 0.04 in   Overcast
2:16 PM 39.2 °F 30.8 °F 33.8 °F 81% 30.19 in 5.0 mi ESE 15.0 mph 20.7 mph 0.02 in   Overcast
2:36 PM 39.2 °F 31.2 °F 33.8 °F 81% 30.18 in 5.0 mi ESE 13.8 mph 19.6 mph 0.04 in   Overcast
2:56 PM 39.2 °F 37.0 °F 33.8 °F 81% 30.18 in 5.0 mi South 3.5 mph - 0.05 in   Overcast
3:16 PM 39.2 °F 35.9 °F 33.8 °F 81% 30.18 in 5.0 mi SSE 4.6 mph - 0.02 in   Overcast
3:36 PM 39.2 °F 37.0 °F 33.8 °F 81% 30.18 in 7.0 mi SSE 3.5 mph - 0.04 in   Overcast
3:56 PM 39.2 °F 35.0 °F 33.8 °F 81% 30.17 in 7.0 mi ESE 5.8 mph - 0.06 in   Overcast
4:16 PM 39.2 °F 35.9 °F 35.6 °F 87% 30.16 in 7.0 mi ESE 4.6 mph - 0.01 in   Overcast
4:36 PM 39.2 °F 31.6 °F 35.6 °F 87% 30.14 in 7.0 mi East 12.7 mph - 0.01 in   Overcast
4:56 PM 39.2 °F 33.6 °F 33.8 °F 81% 30.14 in 7.0 mi SE 8.1 mph 16.1 mph 0.03 in   Overcast
5:16 PM 39.2 °F 32.5 °F 33.8 °F 81% 30.12 in 7.0 mi SE 10.4 mph 16.1 mph N/A   Overcast
5:36 PM 39.2 °F 31.6 °F 35.6 °F 87% 30.11 in 7.0 mi ESE 12.7 mph 20.7 mph 0.02 in   Overcast
5:56 PM 39.2 °F 30.5 °F 35.6 °F 87% 30.10 in 7.0 mi East 16.1 mph 23.0 mph 0.04 in   Overcast
6:16 PM 39.2 °F 30.8 °F 35.6 °F 87% 30.09 in 7.0 mi East 15.0 mph - 0.02 in   Overcast
6:36 PM 39.2 °F 30.8 °F 35.6 °F 87% 30.08 in 7.0 mi East 15.0 mph - 0.03 in   Overcast
6:56 PM 39.2 °F 30.8 °F 35.6 °F 87% 30.07 in 7.0 mi East 15.0 mph 21.9 mph 0.05 in   Overcast
7:16 PM 39.2 °F 30.8 °F 35.6 °F 87% 30.06 in 7.0 mi East 15.0 mph 21.9 mph 0.03 in   Overcast
7:36 PM 39.2 °F 31.2 °F 35.6 °F 87% 30.05 in 7.0 mi East 13.8 mph 19.6 mph 0.05 in   Overcast
7:56 PM 41.0 °F 36.4 °F 35.6 °F 81% 30.07 in 7.0 mi South 6.9 mph - 0.08 in   Overcast
8:16 PM 41.0 °F 38.0 °F 35.6 °F 81% 30.05 in 7.0 mi SE 4.6 mph - 0.03 in   Overcast
8:36 PM 39.2 °F 33.0 °F 35.6 °F 87% 30.04 in 7.0 mi SSE 9.2 mph 18.4 mph 0.06 in   Overcast
8:56 PM 41.0 °F 32.5 °F 35.6 °F 81% 30.02 in 7.0 mi ESE 17.3 mph 24.2 mph 0.11 in   Overcast
9:16 PM 39.2 °F 29.6 °F 35.6 °F 87% 30.01 in 7.0 mi ESE 19.6 mph 26.5 mph 0.03 in   Overcast
9:36 PM 41.0 °F 31.6 °F 33.8 °F 76% 29.99 in 7.0 mi ESE 20.7 mph 26.5 mph 0.04 in   Overcast
9:56 PM 41.0 °F 32.2 °F 35.6 °F 81% 29.99 in 10.0 mi ESE 18.4 mph 25.3 mph 0.05 in   Overcast
10:16 PM 41.0 °F 32.5 °F 35.6 °F 81% 29.97 in 10.0 mi ESE 17.3 mph 26.5 mph 0.01 in   Overcast
10:36 PM 41.0 °F 32.5 °F 35.6 °F 81% 29.96 in 10.0 mi ESE 17.3 mph 25.3 mph 0.02 in   Overcast
10:56 PM 42.8 °F 35.8 °F 37.4 °F 81% 29.96 in 10.0 mi East 13.8 mph 25.3 mph 0.03 in   Overcast
11:16 PM 42.8 °F 34.8 °F 37.4 °F 81% 29.96 in 3.0 mi ESE 17.3 mph 21.9 mph N/A   Overcast
11:36 PM 42.8 °F 35.4 °F 37.4 °F 81% 29.94 in 4.0 mi SE 15.0 mph 24.2 mph 0.01 in   Overcast
11:56 PM 42.8 °F 34.0 °F 37.4 °F 81% 29.91 in 5.0 mi ESE 20.7 mph 27.6 mph 0.01 in   Overcast